Flag for China Weather past 2 weeks in Xiamen, Fujian, China

Now
54 °F

Overcast.


Feels Like: 50 °F
Forecast: 50 / 62 °F
Wind: 10 mph from East

Location: Xiamen Airport

Current Time: Jan 31, 2015 at 12:11:35 PM

Latest Report: Jan 31, 2015 at 11:00 AM


Visibility: 5 mi

Pressure: 30.39 "Hg

Humidity: 72%

Dew point: 45 °F

Location of XiamenLocation

Historic Weather in Xiamen — Graph

°F

Xiamen temperature yesterday

Maximum temperature yesterday: 61 °F (at 1:00 PM)
Minimum temperature yesterday: 54 °F (at 4:00 AM)
Average temperature yesterday: 56 °F

Past Weeks' High & Low Weather Summary

 TemperatureHumidityPressure
High72 °F (Jan 21, 1:00 PM)100% (Jan 17, 12:00 AM)30.42 "Hg (Jan 17, 12:00 AM)
Low46 °F (Jan 24, 6:00 AM)16% (Jan 24, 4:00 PM)30.04 "Hg (Jan 21, 3:00 PM)
Average58 °F72%30.18 "Hg
* Reported Jan 16 10:00 AM — Jan 31 10:00 AM, Xiamen, Weather by CustomWeather, © 2014

Note: Actual official high and low records may vary slightly from our data, if they occured in-between our weather recording intervals... More about our weather records

Advertising

Xiamen weather history for previous 24 hours

 ConditionsComfort  
Time TempWeatherWind HumidityBarometerVisibility
10:00 AM
Jan 31
54 °FMostly cloudy.8 mph72%30.42 "Hg5 mi
9:00 AM52 °FMostly cloudy.10 mph72%30.39 "Hg5 mi
8:00 AM50 °FMostly cloudy.13 mph82%30.39 "Hg5 mi
7:00 AM50 °FMostly cloudy.13 mph82%30.36 "Hg6 mi
6:00 AM50 °FMostly cloudy.13 mph82%30.33 "HgN/A
5:00 AM50 °FMostly cloudy.13 mph82%30.30 "HgN/A
4:00 AM52 °FMostly cloudy.13 mph77%30.30 "HgN/A
3:00 AM52 °FOvercast.10 mph77%30.30 "HgN/A
2:00 AM52 °FMostly cloudy.13 mph77%30.30 "HgN/A
1:00 AM52 °FMostly cloudy.15 mph82%30.30 "HgN/A
12:00 AM52 °FMostly cloudy.15 mph82%30.30 "HgN/A
11:00 PM
Jan 30
54 °FMostly cloudy.13 mph77%30.30 "HgN/A
10:00 PM54 °FMostly cloudy.15 mph77%30.30 "HgN/A
9:00 PM54 °FMostly cloudy.13 mph77%30.30 "HgN/A
8:00 PM54 °FMostly cloudy.10 mph77%30.30 "HgN/A
7:00 PM55 °FMostly cloudy.13 mph77%30.27 "Hg6 mi
6:00 PM55 °FMostly cloudy.13 mph77%30.24 "Hg6 mi
5:00 PM55 °FMostly cloudy.13 mph82%30.21 "Hg5 mi
4:00 PM57 °FMostly cloudy.13 mph77%30.18 "HgN/A
3:00 PM59 °FMostly cloudy.10 mph77%30.18 "HgN/A
2:00 PM59 °FMostly cloudy.10 mph77%30.18 "Hg6 mi
1:00 PM61 °FMostly cloudy.10 mph72%30.21 "Hg5 mi
12:00 PM59 °FMostly cloudy.8 mph77%30.24 "Hg4 mi
Weather by CustomWeather, © 2014

See weather overviewHow to use our weather pages